Tracking 31027 objects as of 19-Jul-2025
HD Live streaming from Space Station
objects crossing your sky now

YZ-1S DEB

Track YZ-1S DEB now!
10-day predictions


NORAD ID: 49385
Int'l Code: 2021-099C
Perigee: 657.8 km
Apogee: 666.7 km
Inclination: 98.2 °
Period: 97.8 minutes
Semi major axis: 7033 km
RCS: Unknown
Launch date: November 3, 2021
Source: People's Republic of China (PRC)
Launch site: Jiuquan Satellite Launch Center, China (JSC)

Note: This is SATELLITE DEBRIS
Your satellite tracking list
CREW DRAGON DEMO-2 DEB
Track 1 satellite(s)




NASA's NSSDC Master Catalog

Two Line Element Set (TLE):
1 49385U 21099C   25199.82469625  .00002401  00000-0  39192-3 0  9992
2 49385  98.2375 334.5325 0006306 344.6507  15.4507 14.71857757198040
Source of the keplerian elements: AFSPC